Location: Famechon
(49.7599°N, 2.0615°E)
Time: 21:33:00
(UTC+00:00)

Meteor PRIRODA - Visible Passes

Search period start: 22 September 2023 00:00
Search period end: 02 October 2023 00:00
Orbit: 464 x 478 km, 97.6° (Epoch: 22 September)

Date Brightness Start Highest point End Pass type
(mag) Time Alt. Az. Time Alt. Az. Time Alt. Az.
22 Sep 5.8 18:40:16 10° SSW 18:43:23 29° W 18:46:31 10° NW visible
24 Sep 6.9 19:18:25 10° WSW 19:19:57 12° W 19:21:28 10° WNW visible
25 Sep 6.1 18:48:17 10° SSW 18:51:13 24° W 18:54:11 10° NW visible
26 Sep 4.5 18:19:09 10° S 18:22:36 52° W 18:26:05 10° NNW visible
27 Sep 7.3 19:27:15 10° W 19:27:41 10° W 19:28:08 10° W visible
28 Sep 6.4 18:56:10 10° SW 18:58:52 21° W 19:01:37 10° NW visible
29 Sep 4.9 18:26:48 10° S 18:30:10 42° W 18:33:35 10° NNW visible
01 Oct 6.6 19:03:55 10° SW 19:06:21 17° W 19:08:49 10° NW visible
